FW9766 Weather Reports


Display with metric or nautical units.
time (UTC)temp
F
wind
direction
speed
MPH
gust
MPH
rain 1hr
in
rain 24hr
in
rain mn
in
humidity
%
barometer
mb
20260503004541 69 341 2.0 5.0 0.00 0.00 0.00 49 1021.1
20260503003055 70 325 1.0 6.0 0.00 0.00 0.00 49 1021.0
20260503001546 70 0 2.0 7.0 0.00 0.00 0.00 48 1021.0
20260503000052 71 318 1.0 7.0 0.00 0.00 0.00 46 1021.1
20260502234544 72 286 3.0 9.0 0.00 0.00 0.00 44 1021.0
20260502233042 72 308 2.0 8.0 0.00 0.00 0.00 44 1021.1
20260502231545 72 336 3.0 10.0 0.00 0.00 0.00 44 1021.2
20260502230048 73 352 2.0 8.0 0.00 0.00 0.00 44 1021.0
20260502224547 73 346 3.0 9.0 0.00 0.00 0.00 47 1021.1
20260502223047 73 352 4.0 10.0 0.00 0.00 0.00 45 1021.0
20260502221544 72 265 6.0 10.0 0.00 0.00 0.00 46 1021.0
20260502220053 72 317 5.0 9.0 0.00 0.00 0.00 44 1021.0
20260502214552 72 0 2.0 11.0 0.00 0.00 0.00 44 1021.1
20260502213045 72 286 3.0 13.0 0.00 0.00 0.00 47 1021.4
20260502211550 73 346 4.0 11.0 0.00 0.00 0.00 48 1021.4
20260502210044 72 278 3.0 11.0 0.00 0.00 0.00 45 1021.9
20260502204542 71 210 4.0 11.0 0.00 0.00 0.00 43 1021.9
20260502203110 71 346 6.0 12.0 0.00 0.00 0.00 47 1022.2
20260502201541 70 323 4.0 12.0 0.00 0.00 0.00 49 1022.4
20260502200048 71 309 3.0 10.0 0.00 0.00 0.00 51 1022.5
20260502194550 70 315 4.0 11.0 0.00 0.01 0.00 52 1022.7
20260502193045 70 314 4.0 16.0 0.00 0.01 0.00 49 1022.7
20260502191545 70 301 5.0 11.0 0.00 0.01 0.00 53 1022.8
20260502190041 69 228 4.0 10.0 0.00 0.01 0.00 55 1022.8
20260502184547 69 299 7.0 12.0 0.00 0.02 0.00 53 1022.9
20260502183047 68 315 2.0 11.0 0.00 0.02 0.00 57 1023.0
20260502181605 68 287 2.0 13.0 0.00 0.02 0.00 58 1023.0
20260502163042 64 316 5.0 11.0 0.00 0.20 0.00 65 1024.1
20260502161544 64 315 5.0 13.0 0.00 0.20 0.00 67 1024.1
20260502151601 60 284 4.0 11.0 0.00 0.20 0.00 68 1024.1
20260502123045 46 0 0.0 2.0 0.00 0.42 0.00 94 1022.3
20260502121544 46 0 0.0 3.0 0.00 0.42 0.00 94 1022.0
20260502114553 46 0 0.0 3.0 0.00 0.45 0.00 94 1021.5
20260502113049 46 0 0.0 2.0 0.00 0.45 0.00 94 1021.3
20260502111548 46 236 1.0 4.0 0.00 0.45 0.00 94 1021.2
20260502110046 46 233 2.0 5.0 0.00 0.45 0.00 94 1021.2
20260502104544 46 254 1.0 5.0 0.00 0.47 0.00 94 1021.3
20260502103043 46 0 0.0 3.0 0.00 0.47 0.00 94 1021.1
20260502101545 46 0 0.0 3.0 0.00 0.47 0.00 94 1020.9
20260502070048 48 260 3.0 10.0 0.00 0.62 0.00 92 1019.3
20260502064558 48 318 3.0 10.0 0.00 0.62 0.00 92 1019.5
20260502063048 48 258 2.0 8.0 0.00 0.62 0.00 92 1019.5
20260502061544 49 257 2.0 8.0 0.00 0.62 0.00 92 1019.5
20260502060043 49 295 0.0 4.0 0.00 0.62 0.00 92 1019.4
20260502054556 49 298 2.0 6.0 0.00 0.62 0.00 92 1019.7
20260502053048 49 252 1.0 6.0 0.00 0.62 0.00 92 1019.6
20260502051547 50 259 1.0 7.0 0.00 0.62 0.00 92 1019.5
20260502050048 50 246 1.0 7.0 0.00 0.62 0.00 92 1019.3
20260502044542 50 286 1.0 4.0 0.00 0.62 0.62 92 1019.4
20260502043053 50 264 1.0 5.0 0.00 0.62 0.62 91 1019.5
20260502041549 50 296 1.0 6.0 0.00 0.62 0.62 90 1019.5
20260502040058 51 244 2.0 7.0 0.00 0.62 0.62 89 1019.6
20260502034547 51 263 3.0 10.0 0.00 0.62 0.62 88 1019.2
20260502033048 51 306 6.0 12.0 0.00 0.62 0.62 88 1019.3
20260502031548 52 288 4.0 10.0 0.00 0.62 0.62 88 1018.8
20260502030046 52 278 3.0 10.0 0.00 0.62 0.62 88 1018.7
20260502024546 52 268 4.0 11.0 0.00 0.66 0.62 87 1018.7
20260502023050 52 299 5.0 13.0 0.00 0.66 0.62 87 1018.5
20260502021547 52 287 4.0 14.0 0.00 0.66 0.62 87 1018.0
20260502020106 52 288 6.0 17.0 0.00 0.66 0.62 87 1017.9
20260502014553 52 315 5.0 13.0 0.00 0.69 0.62 88 1017.4
20260502013047 52 256 3.0 17.0 0.00 0.69 0.62 88 1017.2
20260502011552 52 305 5.0 15.0 0.00 0.69 0.62 88 1016.9
20260502010055 53 296 5.0 14.0 0.00 0.69 0.62 89 1016.7